Ana Sayfa
METAR-TAF:

METAR-TAF

Havaalanları :

Barrow Island, Avustralya

Enlem: 20-51-57S, Boylam: 115-24-17E, yükseklik: 8 m

Güncel hava durumu gözlemi

Rapor saat 14:00 UTC de 53 dakika önce yapıldı.
Rüzgar kuzeydoğudan 20 kt
Sıcaklık 21°C
Nem 73%
Basınç 1013 hPa

METAR: YBWX 081400Z AUTO 05020KT //// // ////// 21/16 Q1013

Saat: 22:53 (14:53 UTC)


TAF: eksik

4.000'den fazla havaalanı için hava durumu gözlemleri ve tahminleri (METAR ve TAF raporları).

Kullanılabilir istasyonlar harita üzerinde sarı ve kırmızı noktalarla gösterilir.

İstasyonun adını görmek için fareyi noktanın üzerinde gezdirin.

Sonrasında hava gözlem ve tahminlerini görmek için tıklayın.

Haritayı değiştirmek için: yaklaştırmak için siyah artı işaretli yeşil düğmeye ve uzaklaştırmak için de eksi işaretli düğmeye hızla tıklayın; bitişik haritalar için yeşil okları kullanın.


METAR-TAF: